Time,TemperatureF,DewpointF,PressureIn,WindDirection,WindDirectionDegrees,WindSpeedMPH,WindSpeedGustMPH,Humidity,HourlyPrecipIn,Conditions,Clouds,dailyrainin,SoftwareType,DateUTC
2013-02-12 00:31:00,30.0,12.0,-100.00,North,350,1.0,3.0,46,-99.99,,,-99.99,,2013-02-12 08:31:00,
2013-02-12 00:41:00,30.0,12.0,-100.00,North,350,1.0,3.0,46,-99.99,,,-99.99,,2013-02-12 08:41:00,
2013-02-12 00:52:00,30.0,13.0,-100.00,NNE,13,1.0,3.0,48,-99.99,,,-99.99,,2013-02-12 08:52:00,
2013-02-12 01:01:00,30.0,13.0,-100.00,NNE,13,1.0,3.0,48,-99.99,,,-99.99,,2013-02-12 09:01:00,
2013-02-12 01:11:00,30.0,13.0,-100.00,SW,236,1.0,4.0,48,-99.99,,,-99.99,,2013-02-12 09:11:00,
2013-02-12 01:21:00,30.0,13.0,-100.00,SW,236,1.0,4.0,48,-99.99,,,-99.99,,2013-02-12 09:21:00,
2013-02-12 01:31:00,29.0,13.0,-100.00,North,6,1.0,4.0,50,-99.99,,,-99.99,,2013-02-12 09:31:00,
2013-02-12 01:41:00,29.0,13.0,-100.00,North,6,1.0,4.0,50,-99.99,,,-99.99,,2013-02-12 09:41:00,
2013-02-12 02:11:00,29.0,13.0,-100.00,WSW,253,0.0,0.0,51,-99.99,,,-99.99,,2013-02-12 10:11:00,
2013-02-12 02:21:00,29.0,13.0,-100.00,WSW,253,0.0,0.0,51,-99.99,,,-99.99,,2013-02-12 10:21:00,
2013-02-12 02:31:00,28.0,13.0,-100.00,ENE,75,0.0,2.0,54,-99.99,,,-99.99,,2013-02-12 10:31:00,
2013-02-12 02:43:00,28.0,13.0,-100.00,ENE,75,0.0,2.0,54,-99.99,,,-99.99,,2013-02-12 10:43:00,
2013-02-12 02:52:00,28.0,13.0,-100.00,WNW,298,0.0,2.0,53,-99.99,,,-99.99,,2013-02-12 10:52:00,
2013-02-12 03:01:00,28.0,13.0,-100.00,WNW,298,0.0,2.0,53,-99.99,,,-99.99,,2013-02-12 11:01:00,
2013-02-12 03:11:00,27.0,13.0,-100.00,WSW,243,1.0,2.0,55,-99.99,,,-99.99,,2013-02-12 11:11:00,
2013-02-12 03:21:00,27.0,13.0,-100.00,WSW,243,1.0,2.0,55,-99.99,,,-99.99,,2013-02-12 11:21:00,
2013-02-12 03:31:00,29.0,13.0,-100.00,WSW,254,1.0,2.0,51,-99.99,,,-99.99,,2013-02-12 11:31:00,
2013-02-12 03:41:00,29.0,13.0,-100.00,WSW,254,1.0,2.0,51,-99.99,,,-99.99,,2013-02-12 11:41:00,
2013-02-12 03:52:00,30.0,13.0,-100.00,West,270,2.0,3.0,50,-99.99,,,-99.99,,2013-02-12 11:52:00,
2013-02-12 04:01:00,30.0,13.0,-100.00,West,270,2.0,3.0,50,-99.99,,,-99.99,,2013-02-12 12:01:00,
2013-02-12 04:11:00,28.0,13.0,-100.00,NNE,31,0.0,2.0,53,-99.99,,,-99.99,,2013-02-12 12:11:00,
2013-02-12 04:21:00,28.0,13.0,-100.00,NNE,31,0.0,2.0,53,-99.99,,,-99.99,,2013-02-12 12:21:00,
2013-02-12 04:32:00,28.0,13.0,-100.00,NNE,30,1.0,3.0,53,-99.99,,,-99.99,,2013-02-12 12:32:00,
2013-02-12 04:42:00,28.0,13.0,-100.00,NNE,30,1.0,3.0,53,-99.99,,,-99.99,,2013-02-12 12:42:00,
2013-02-12 04:52:00,27.0,14.0,-100.00,SW,230,0.0,2.0,56,-99.99,,,-99.99,,2013-02-12 12:52:00,
2013-02-12 05:01:00,27.0,14.0,-100.00,SW,230,0.0,2.0,56,-99.99,,,-99.99,,2013-02-12 13:01:00,
2013-02-12 05:11:00,27.0,13.0,-100.00,NNE,30,1.0,2.0,56,-99.99,,,-99.99,,2013-02-12 13:11:00,
2013-02-12 05:22:00,27.0,13.0,-100.00,NNE,30,1.0,2.0,56,-99.99,,,-99.99,,2013-02-12 13:22:00,
2013-02-12 05:32:00,28.0,13.0,-100.00,NW,312,0.0,0.0,53,-99.99,,,-99.99,,2013-02-12 13:32:00,
2013-02-12 05:42:00,28.0,13.0,-100.00,NW,312,0.0,0.0,53,-99.99,,,-99.99,,2013-02-12 13:42:00,
2013-02-12 05:52:00,28.0,13.0,-100.00,NE,37,0.0,0.0,54,-99.99,,,-99.99,,2013-02-12 13:52:00,
2013-02-12 06:01:00,28.0,13.0,-100.00,NE,37,0.0,0.0,54,-99.99,,,-99.99,,2013-02-12 14:01:00,
2013-02-12 06:31:00,27.0,13.0,-100.00,WSW,257,2.0,3.0,54,-99.99,,,-99.99,,2013-02-12 14:31:00,
2013-02-12 06:42:00,27.0,13.0,-100.00,WSW,257,2.0,3.0,54,-99.99,,,-99.99,,2013-02-12 14:42:00,
2013-02-12 06:52:00,26.0,13.0,-100.00,NW,305,0.0,1.0,58,-99.99,,,-99.99,,2013-02-12 14:52:00,
2013-02-12 07:01:00,26.0,13.0,-100.00,NW,305,0.0,1.0,58,-99.99,,,-99.99,,2013-02-12 15:01:00,
2013-02-12 07:11:00,28.0,14.0,-100.00,North,349,0.0,2.0,54,-99.99,,,-99.99,,2013-02-12 15:11:00,
2013-02-12 07:32:00,28.0,13.0,-100.00,North,4,2.0,4.0,54,-99.99,,,-99.99,,2013-02-12 15:32:00,
2013-02-12 07:42:00,28.0,13.0,-100.00,North,4,2.0,4.0,54,-99.99,,,-99.99,,2013-02-12 15:42:00,
2013-02-12 07:52:00,29.0,13.0,-100.00,NW,309,0.0,1.0,52,-99.99,,,-99.99,,2013-02-12 15:52:00,
2013-02-12 08:01:00,29.0,13.0,-100.00,NW,309,0.0,1.0,52,-99.99,,,-99.99,,2013-02-12 16:01:00,
2013-02-12 08:11:00,29.0,14.0,-100.00,NE,47,1.0,2.0,52,-99.99,,,-99.99,,2013-02-12 16:11:00,
2013-02-12 08:22:00,29.0,14.0,-100.00,NE,47,1.0,2.0,52,-99.99,,,-99.99,,2013-02-12 16:22:00,
2013-02-12 08:31:00,30.0,14.0,-100.00,SE,136,0.0,2.0,50,-99.99,,,-99.99,,2013-02-12 16:31:00,
2013-02-12 09:11:00,30.0,13.0,-100.00,South,188,2.0,4.0,48,-99.99,,,-99.99,,2013-02-12 17:11:00,
2013-02-12 09:21:00,30.0,13.0,-100.00,South,188,2.0,4.0,48,-99.99,,,-99.99,,2013-02-12 17:21:00,
2013-02-12 09:32:00,32.0,13.0,-100.00,SSE,164,2.0,4.0,45,-99.99,,,-99.99,,2013-02-12 17:32:00,
2013-02-12 09:42:00,32.0,13.0,-100.00,SSE,164,2.0,4.0,45,-99.99,,,-99.99,,2013-02-12 17:42:00,
2013-02-12 09:52:00,35.0,13.0,-100.00,SE,145,1.0,3.0,41,-99.99,,,-99.99,,2013-02-12 17:52:00,
2013-02-12 10:01:00,35.0,13.0,-100.00,SE,145,1.0,3.0,41,-99.99,,,-99.99,,2013-02-12 18:01:00,
2013-02-12 10:11:00,36.0,13.0,-100.00,SSE,151,2.0,5.0,38,-99.99,,,-99.99,,2013-02-12 18:11:00,
2013-02-12 10:22:00,36.0,13.0,-100.00,SSE,151,2.0,5.0,38,-99.99,,,-99.99,,2013-02-12 18:22:00,
2013-02-12 10:52:00,38.0,14.0,-100.00,ESE,116,2.0,6.0,36,-99.99,,,-99.99,,2013-02-12 18:52:00,
2013-02-12 11:02:00,38.0,14.0,-100.00,ESE,116,2.0,6.0,36,-99.99,,,-99.99,,2013-02-12 19:02:00,
2013-02-12 11:11:00,41.0,14.0,-100.00,East,79,2.0,5.0,33,-99.99,,,-99.99,,2013-02-12 19:11:00,
2013-02-12 11:21:00,41.0,14.0,-100.00,East,79,2.0,5.0,33,-99.99,,,-99.99,,2013-02-12 19:21:00,
2013-02-12 11:31:00,39.0,15.0,-100.00,SE,128,3.0,6.0,37,-99.99,,,-99.99,,2013-02-12 19:31:00,
2013-02-12 11:41:00,39.0,15.0,-100.00,SE,128,3.0,6.0,37,-99.99,,,-99.99,,2013-02-12 19:41:00,
2013-02-12 11:52:00,41.0,16.0,-100.00,East,95,3.0,7.0,36,-99.99,,,-99.99,,2013-02-12 19:52:00,
2013-02-12 12:01:00,41.0,16.0,-100.00,East,95,3.0,7.0,36,-99.99,,,-99.99,,2013-02-12 20:01:00,
2013-02-12 12:11:00,42.0,15.0,-100.00,ENE,71,2.0,7.0,33,-99.99,,,-99.99,,2013-02-12 20:11:00,
2013-02-12 12:21:00,42.0,15.0,-100.00,ENE,71,2.0,7.0,33,-99.99,,,-99.99,,2013-02-12 20:21:00,
2013-02-12 12:52:00,43.0,16.0,-100.00,East,96,3.0,8.0,33,-99.99,,,-99.99,,2013-02-12 20:52:00,
2013-02-12 13:01:00,43.0,16.0,-100.00,East,96,3.0,8.0,33,-99.99,,,-99.99,,2013-02-12 21:01:00,
2013-02-12 13:11:00,44.0,16.0,-100.00,ESE,104,3.0,9.0,31,-99.99,,,-99.99,,2013-02-12 21:11:00,
2013-02-12 13:21:00,44.0,16.0,-100.00,ESE,104,3.0,9.0,31,-99.99,,,-99.99,,2013-02-12 21:21:00,
2013-02-12 13:52:00,44.0,16.0,-100.00,ESE,117,3.0,7.0,31,-99.99,,,-99.99,,2013-02-12 21:52:00,
2013-02-12 14:01:00,44.0,16.0,-100.00,ESE,117,3.0,7.0,31,-99.99,,,-99.99,,2013-02-12 22:01:00,
2013-02-12 14:12:00,45.0,15.0,-100.00,East,95,2.0,6.0,30,-99.99,,,-99.99,,2013-02-12 22:12:00,
2013-02-12 14:21:00,45.0,15.0,-100.00,East,95,2.0,6.0,30,-99.99,,,-99.99,,2013-02-12 22:21:00,
2013-02-12 14:31:00,45.0,16.0,-100.00,ENE,78,3.0,9.0,30,-99.99,,,-99.99,,2013-02-12 22:31:00,
2013-02-12 14:41:00,45.0,16.0,-100.00,ENE,78,3.0,9.0,30,-99.99,,,-99.99,,2013-02-12 22:41:00,
2013-02-12 14:52:00,47.0,18.0,-100.00,NNE,24,2.0,5.0,30,-99.99,,,-99.99,,2013-02-12 22:52:00,
2013-02-12 15:01:00,47.0,18.0,-100.00,NNE,24,2.0,5.0,30,-99.99,,,-99.99,,2013-02-12 23:01:00,
2013-02-12 15:11:00,45.0,16.0,-100.00,SE,133,5.0,10.0,30,-99.99,,,-99.99,,2013-02-12 23:11:00,
2013-02-12 15:21:00,45.0,16.0,-100.00,SE,133,5.0,10.0,30,-99.99,,,-99.99,,2013-02-12 23:21:00,
2013-02-12 15:31:00,45.0,16.0,-100.00,NE,48,7.0,14.0,31,-99.99,,,-99.99,,2013-02-12 23:31:00,
2013-02-12 15:41:00,45.0,16.0,-100.00,NE,48,7.0,14.0,31,-99.99,,,-99.99,,2013-02-12 23:41:00,
2013-02-12 15:52:00,44.0,15.0,-100.00,NE,45,8.0,12.0,30,-99.99,,,-99.99,,2013-02-12 23:52:00,
2013-02-12 16:02:00,45.0,15.0,-100.00,NNE,32,6.0,11.0,30,-99.99,,,-99.99,,2013-02-13 00:02:00,
2013-02-12 16:11:00,45.0,15.0,-100.00,NNE,32,6.0,11.0,30,-99.99,,,-99.99,,2013-02-13 00:11:00,
2013-02-12 16:21:00,45.0,15.0,-100.00,NNE,32,6.0,11.0,30,-99.99,,,-99.99,,2013-02-13 00:21:00,
2013-02-12 16:32:00,45.0,16.0,-100.00,NNE,32,5.0,9.0,30,-99.99,,,-99.99,,2013-02-13 00:32:00,
2013-02-12 16:42:00,45.0,16.0,-100.00,NNE,32,5.0,9.0,30,-99.99,,,-99.99,,2013-02-13 00:42:00,
2013-02-12 16:52:00,44.0,16.0,-100.00,NNE,23,6.0,11.0,32,-99.99,,,-99.99,,2013-02-13 00:52:00,
2013-02-12 17:01:00,44.0,16.0,-100.00,NNE,23,6.0,11.0,32,-99.99,,,-99.99,,2013-02-13 01:01:00,
2013-02-12 17:11:00,44.0,17.0,-100.00,North,10,6.0,11.0,33,-99.99,,,-99.99,,2013-02-13 01:11:00,
2013-02-12 17:21:00,44.0,17.0,-100.00,North,10,6.0,11.0,33,-99.99,,,-99.99,,2013-02-13 01:21:00,
2013-02-12 17:31:00,44.0,15.0,-100.00,North,6,5.0,8.0,31,-99.99,,,-99.99,,2013-02-13 01:31:00,
2013-02-12 17:42:00,44.0,15.0,-100.00,North,6,5.0,8.0,31,-99.99,,,-99.99,,2013-02-13 01:42:00,
2013-02-12 17:52:00,42.0,16.0,-100.00,North,10,5.0,8.0,35,-99.99,,,-99.99,,2013-02-13 01:52:00,
2013-02-12 18:01:00,42.0,16.0,-100.00,North,10,5.0,8.0,35,-99.99,,,-99.99,,2013-02-13 02:01:00,
2013-02-12 18:52:00,38.0,16.0,-100.00,WSW,250,1.0,3.0,41,-99.99,,,-99.99,,2013-02-13 02:52:00,
2013-02-12 19:01:00,38.0,16.0,-100.00,WSW,250,1.0,3.0,41,-99.99,,,-99.99,,2013-02-13 03:01:00,
2013-02-12 19:11:00,37.0,16.0,-100.00,ESE,114,0.0,2.0,42,-99.99,,,-99.99,,2013-02-13 03:11:00,
2013-02-12 19:21:00,37.0,16.0,-100.00,ESE,114,0.0,2.0,42,-99.99,,,-99.99,,2013-02-13 03:21:00,
2013-02-12 19:32:00,38.0,17.0,-100.00,North,356,3.0,6.0,42,-99.99,,,-99.99,,2013-02-13 03:32:00,
2013-02-12 19:41:00,38.0,17.0,-100.00,North,356,3.0,6.0,42,-99.99,,,-99.99,,2013-02-13 03:41:00,
2013-02-12 19:52:00,37.0,16.0,-100.00,East,88,0.0,3.0,43,-99.99,,,-99.99,,2013-02-13 03:52:00,
2013-02-12 20:01:00,37.0,16.0,-100.00,East,88,0.0,3.0,43,-99.99,,,-99.99,,2013-02-13 04:01:00,
2013-02-12 20:11:00,36.0,17.0,-100.00,NE,41,1.0,3.0,45,-99.99,,,-99.99,,2013-02-13 04:11:00,
2013-02-12 20:21:00,36.0,17.0,-100.00,NE,41,1.0,3.0,45,-99.99,,,-99.99,,2013-02-13 04:21:00,
2013-02-12 21:11:00,35.0,17.0,-100.00,West,274,2.0,3.0,48,-99.99,,,-99.99,,2013-02-13 05:11:00,
2013-02-12 21:22:00,35.0,17.0,-100.00,West,274,2.0,3.0,48,-99.99,,,-99.99,,2013-02-13 05:22:00,
2013-02-12 21:31:00,35.0,18.0,-100.00,WNW,285,3.0,6.0,50,-99.99,,,-99.99,,2013-02-13 05:31:00,
2013-02-12 21:41:00,35.0,18.0,-100.00,WNW,285,3.0,6.0,50,-99.99,,,-99.99,,2013-02-13 05:41:00,
2013-02-12 21:52:00,34.0,20.0,-100.00,North,354,2.0,5.0,54,-99.99,,,-99.99,,2013-02-13 05:52:00,
2013-02-12 22:02:00,34.0,20.0,-100.00,North,354,2.0,5.0,54,-99.99,,,-99.99,,2013-02-13 06:02:00,
2013-02-12 22:31:00,34.0,19.0,-100.00,North,353,4.0,6.0,54,-99.99,,,-99.99,,2013-02-13 06:31:00,
2013-02-12 22:42:00,34.0,19.0,-100.00,North,353,4.0,6.0,54,-99.99,,,-99.99,,2013-02-13 06:42:00,
2013-02-12 22:52:00,34.0,19.0,-100.00,SSE,155,1.0,4.0,53,-99.99,,,-99.99,,2013-02-13 06:52:00,
2013-02-12 23:02:00,34.0,19.0,-100.00,SSE,155,1.0,4.0,53,-99.99,,,-99.99,,2013-02-13 07:02:00,
2013-02-12 23:11:00,36.0,19.0,-100.00,West,274,1.0,3.0,49,-99.99,,,-99.99,,2013-02-13 07:11:00,
2013-02-12 23:21:00,36.0,19.0,-100.00,West,274,1.0,3.0,49,-99.99,,,-99.99,,2013-02-13 07:21:00,
2013-02-12 23:31:00,33.0,18.0,-100.00,NNW,336,1.0,4.0,54,-99.99,,,-99.99,,2013-02-13 07:31:00,
2013-02-12 23:41:00,33.0,18.0,-100.00,NNW,336,1.0,4.0,54,-99.99,,,-99.99,,2013-02-13 07:41:00,